GW6549 Weather Reports


time (UTC)temp
F
wind
direction
speed
knots
gust
knots
rain 1hr
in
rain 24hr
in
rain mn
in
humidity
%
barometer
mb
20260505153045 57 27 9.6 14.8 0.00 0.00 0.00 46 1012.2
20260505152025 57 15 9.6 14.8 0.00 0.00 0.00 47 1012.4
20260505151043 56 13 8.7 13.0 0.00 0.00 0.00 48 1012.4
20260505125025 53 17 8.7 13.0 0.00 0.00 0.00 53 1011.4
20260505124023 53 0 9.6 13.9 0.00 0.00 0.00 53 1011.3
20260505123023 53 6 8.7 13.0 0.00 0.00 0.00 52 1011.2
20260505122018 53 3 9.6 14.8 0.00 0.00 0.00 52 1011.0
20260505121018 53 0 8.7 13.0 0.00 0.00 0.00 52 1011.0
20260505120018 53 360 9.6 12.2 0.00 0.00 0.00 52 1011.0
20260505115018 54 12 10.4 13.9 0.00 0.00 0.00 51 1011.0
20260505114058 54 4 8.7 13.0 0.00 0.00 0.00 51 1011.0
20260505113018 54 26 7.8 13.0 0.00 0.00 0.00 51 1011.0
20260505112018 54 21 8.7 13.9 0.00 0.00 0.00 51 1010.9
20260505111016 54 24 9.6 15.6 0.00 0.00 0.00 51 1010.7
20260505102030 55 22 8.7 13.9 0.00 0.00 0.00 50 1010.3
20260505101027 56 19 8.7 13.9 0.00 0.00 0.00 50 1010.3
20260505100027 56 18 8.7 13.9 0.00 0.00 0.00 48 1010.3
20260505095127 56 12 9.6 14.8 0.00 0.00 0.00 48 1009.9
20260505094025 57 11 10.4 15.6 0.00 0.00 0.00 47 1009.9
20260505093025 57 22 8.7 13.9 0.00 0.00 0.00 47 1009.7
20260505092026 57 8 11.3 15.6 0.00 0.00 0.00 47 1009.9
20260505091027 57 2 9.6 13.9 0.00 0.00 0.00 45 1009.7
20260505090027 58 10 10.4 14.8 0.00 0.00 0.00 45 1009.5
20260505085026 58 15 8.7 15.6 0.00 0.00 0.00 45 1009.7
20260505084024 58 10 7.8 13.9 0.00 0.00 0.00 44 1009.5
20260505083024 58 17 7.0 11.3 0.00 0.00 0.00 44 1009.6
20260505082025 58 23 7.8 13.0 0.00 0.00 0.00 44 1009.5
20260505081025 58 22 7.8 12.2 0.00 0.00 0.00 44 1009.5
20260505080024 59 18 7.0 11.3 0.00 0.00 0.00 44 1009.5
20260505075023 59 10 7.8 11.3 0.00 0.00 0.00 44 1009.5
20260505074019 59 7 8.7 13.0 0.00 0.00 0.00 44 1009.5
20260505073018 59 18 7.0 9.6 0.00 0.00 0.00 44 1009.3
20260505072019 59 355 8.7 12.2 0.00 0.00 0.00 44 1009.5
20260505071038 59 8 6.1 9.6 0.00 0.00 0.00 46 1009.3
20260505070017 59 0 6.1 9.6 0.00 0.00 0.00 46 1009.2
20260505065015 60 11 6.1 8.7 0.00 0.00 0.00 45 1009.2
20260505064016 61 35 4.3 7.8 0.00 0.00 0.00 44 1009.2
20260505063030 61 27 4.3 9.6 0.00 0.00 0.00 42 1009.2
20260505062028 61 19 4.3 11.3 0.00 0.00 0.00 42 1009.2
20260505061028 61 35 4.3 7.8 0.00 0.00 0.00 42 1009.2
20260505060027 61 44 2.6 6.1 0.00 0.00 0.00 43 1009.1
20260505055026 61 47 2.6 7.8 0.00 0.00 0.00 42 1009.1
20260505054027 61 86 1.7 4.3 0.00 0.00 0.00 41 1008.9
20260505053026 62 42 3.5 7.0 0.00 0.00 0.00 41 1009.0
20260505052046 63 24 4.3 7.8 0.00 0.00 0.00 41 1009.1
20260505051025 64 47 1.7 7.0 0.00 0.00 0.00 42 1009.1
20260505050108 65 29 5.2 7.8 0.00 0.00 0.00 38 1008.8
20260505041027 66 359 7.8 12.2 0.00 0.00 0.00 33 1008.3
20260505040026 66 8 7.8 13.0 0.00 0.00 0.00 33 1008.1
20260505035027 67 5 5.2 8.7 0.00 0.00 0.00 34 1008.1
20260505034028 67 355 6.1 9.6 0.00 0.00 0.00 33 1008.1
20260505033028 67 0 6.1 8.7 0.00 0.00 0.00 32 1007.9
20260505032027 68 0 5.2 8.7 0.00 0.00 0.00 31 1007.7
20260505031027 68 357 5.2 9.6 0.00 0.00 0.00 31 1007.7
20260505030027 68 327 3.5 8.7 0.00 0.00 0.00 30 1007.5
20260505025026 69 352 4.3 9.6 0.00 0.00 0.00 31 1007.6
20260505024026 70 326 2.6 7.0 0.00 0.00 0.00 31 1007.5
20260505023046 70 354 4.3 9.6 0.00 0.00 0.00 30 1007.3
20260505022027 71 332 5.2 11.3 0.00 0.00 0.00 29 1007.3
20260505021026 71 338 3.5 5.2 0.00 0.00 0.00 30 1007.4
20260505020023 71 316 2.6 5.2 0.00 0.00 0.00 31 1007.5
20260505015024 71 360 3.5 6.1 0.00 0.00 0.00 31 1007.3
20260505014043 72 316 2.6 5.2 0.00 0.00 0.00 31 1007.3
20260505013044 72 1 4.3 9.6 0.00 0.00 0.00 31 1007.3
20260505012024 72 351 4.3 7.0 0.00 0.00 0.00 32 1007.4
20260505011022 72 9 7.0 11.3 0.00 0.00 0.00 30 1007.3
20260505010022 73 1 6.1 9.6 0.00 0.00 0.00 30 1007.3
20260505005018 73 356 5.2 7.8 0.00 0.00 0.00 32 1007.3
20260505004016 74 11 5.2 12.2 0.00 0.00 0.00 30 1007.3
20260505003031 74 14 4.3 7.8 0.00 0.00 0.00 30 1007.6
20260505002030 74 301 2.6 4.3 0.00 0.00 0.00 29 1007.5
20260505001029 74 293 1.7 4.3 0.00 0.00 0.00 29 1007.6
20260505000016 74 346 3.5 7.8 0.00 0.00 0.00 31 1007.7
20260504235028 74 354 3.5 8.7 0.00 0.00 0.00 29 1007.6
20260504234027 74 0 3.5 9.6 0.00 0.00 0.00 30 1007.7
20260504233029 75 355 4.3 12.2 0.00 0.00 0.00 31 1007.7
20260504232048 75 324 3.5 6.1 0.00 0.00 0.00 31 1007.7
20260504231027 75 334 3.5 7.8 0.00 0.00 0.00 31 1007.7
20260504230047 75 356 4.3 11.3 0.00 0.00 0.00 31 1007.7
20260504225025 76 9 2.6 7.0 0.00 0.00 0.00 31 1007.7
20260504224024 75 339 3.5 7.8 0.00 0.00 0.00 32 1007.7
20260504223022 75 5 4.3 9.6 0.00 0.00 0.00 31 1007.7
20260504222044 75 252 2.6 9.6 0.00 0.00 0.00 36 1007.7
20260504221023 75 351 3.5 8.7 0.00 0.00 0.00 32 1007.7
20260504220023 75 298 3.5 8.7 0.00 0.00 0.00 36 1008.0
20260504215043 74 2 5.2 11.3 0.00 0.00 0.00 35 1007.9
20260504214023 75 13 2.6 6.1 0.00 0.00 0.00 32 1008.1
20260504213022 75 106 1.7 7.8 0.00 0.00 0.00 34 1008.1
20260504212023 75 350 4.3 8.7 0.00 0.00 0.00 32 1008.1
20260504211042 75 11 3.5 8.7 0.00 0.00 0.00 32 1008.1
20260504210024 74 29 4.3 11.3 0.00 0.00 0.00 32 1008.1
20260504205044 74 310 2.6 7.0 0.00 0.00 0.00 34 1008.2
20260504204043 74 10 2.6 4.3 0.00 0.00 0.00 31 1008.4
20260504203023 74 355 3.5 7.0 0.00 0.00 0.00 33 1008.4
20260504202030 74 334 3.5 8.7 0.00 0.00 0.00 33 1008.4
20260504201047 74 1 3.5 7.0 0.00 0.00 0.00 35 1008.4
20260504200027 74 44 1.7 5.2 0.00 0.00 0.00 33 1008.4
20260504195047 74 10 2.6 7.0 0.00 0.00 0.00 37 1008.4
20260504194045 74 266 2.6 6.1 0.00 0.00 0.00 35 1008.4
20260504193046 73 52 2.6 6.1 0.00 0.00 0.00 36 1008.4
20260504192027 72 209 0.9 2.6 0.00 0.00 0.00 37 1008.4
20260504191027 71 34 1.7 6.1 0.00 0.00 0.00 38 1008.4
20260504190025 71 5 3.5 7.0 0.00 0.00 0.00 35 1008.4
20260504185025 71 35 3.5 7.8 0.00 0.00 0.00 37 1008.6
20260504184145 70 20 2.6 6.1 0.00 0.00 0.00 37 1008.6
20260504183023 70 45 2.6 6.1 0.00 0.00 0.00 39 1008.5
20260504182023 70 36 3.5 6.1 0.00 0.00 0.00 40 1008.6
20260504181022 69 64 1.7 5.2 0.00 0.00 0.00 40 1008.7
20260504180017 69 39 2.6 7.8 0.00 0.00 0.00 40 1008.8
20260504175016 68 46 2.6 7.0 0.00 0.00 0.00 41 1008.8
20260504174016 67 51 3.5 7.0 0.00 0.00 0.00 41 1008.8
20260504173050 66 44 3.5 9.6 0.00 0.00 0.00 42 1008.5
20260504172049 66 61 3.5 8.7 0.00 0.00 0.00 42 1008.5
20260504171031 65 35 3.5 7.8 0.00 0.00 0.00 42 1008.6